Weather in Zelenodolsk

Ukraine / Dnipropetrovsk Region     47°34′06″N   33°38′51″E
temp.,
°C
wind,
m/s
gust,
m/s
humid.,
%
clouds,
%
prec.,
mm/h
press.,
hPa
HPBL,
m
17 may, mon
mon1700:00+17n5895100 4.6 1002187
03:00+17n469698 5.3 1002151
06:00+16n369832 0.1 1001166
09:00+20wnw228283 1.3 1001592
12:00+19wnw5679100 0.3 1003570
15:00+22sw4560100 0.6 10031287
18:00+21wsw676732 1.2 1003881
21:00+17sw4979100 1.6 1005296
18 may, tue
tue1800:00+15ssw488760 0.2 1006238
03:00+13ssw4894100 0.4 1006230
06:00+13s489610 0.0 1006247
09:00+18s57735 0.0 1006700
12:00+21s8960100 0.7 10051607
15:00+20s8106266 1.6 10041379
18:00+19ssw8116867 0.8 10041211
21:00+15s51082100 0.8 1004342
19 may, wed
wed1900:00+14ssw61185100 0.0 1005348
03:00+13sw3686100 0.1 100493
06:00+12sw3787100 0.0 1005214
09:00+16sw67655 0.0 1005858
12:00+18sw665992 0.3 10061560
15:00+18sw776399 0.8 10061301
18:00+16wsw787483 0.6 1007993
21:00+13w71187100 0.8 1008551
20 may, thu
thu2000:00+12w7138692 0.0 1009641
03:00+10wsw511935 0.0 1010256
06:00+10wsw49925 0.0 1010223
09:00+15wsw4671100 0.0 1011518
12:00+20sw575698 0.2 10111491
15:00+21wsw7749100 0.7 10101883
18:00+18wsw3553100 0.1 1010549
21:00+16sse2262100 0.1 101016
21 may, fri
fri2100:00+13w2589100 2.4 1011170
03:00+14ssw2283100 2.4 101124
06:00+13wnw1183100 0.0 101117
09:00+17nnw2265100 0.0 1012395
12:00+20n2153100 0.0 10121105
15:00+22ne2146100 0.0 10121668
18:00+22ene3349100 0.0 10121388
21:00+18n3364100 0.0 101240